• In Deutschland
  • Länderverzeichnis
  • Für 7 Tage
  • Wassertemperatur
  • Satellitenkarten
  • Wetterkarte
  • Widgets
  • user-avatar
    Anmelden

    Stündliche Wetter Inhapi

    Heute, 24 November, Freitag

    Zeit Temperatur Niederschläge Wind Luftdruck Luftfeuchtigkeit
    00:00 +27°C° 0 mm 3 m/S 726 mmHg 66%
    01:00 +27°C° 0 mm 3 m/S 726 mmHg 67%
    02:00 +27°C° 0 mm 3 m/S 726 mmHg 68%
    03:00 +26°C° 0 mm 2 m/S 726 mmHg 69%
    04:00 +26°C° 0 mm 3 m/S 726 mmHg 68%
    05:00 +26°C° 0 mm 3 m/S 727 mmHg 68%
    06:00 +26°C° 0 mm 3 m/S 727 mmHg 67%
    07:00 +28°C° 0 mm 3 m/S 727 mmHg 59%
    08:00 +30°C° 0 mm 3 m/S 728 mmHg 50%
    09:00 +33°C° 0 mm 3 m/S 728 mmHg 42%
    10:00 +34°C° 0 mm 3 m/S 728 mmHg 38%
    11:00 +35°C° 0 mm 3 m/S 727 mmHg 35%
    12:00 +37°C° 0 mm 3 m/S 727 mmHg 31%
    13:00 +36°C° 0 mm 4 m/S 727 mmHg 32%
    14:00 +36°C° 0 mm 4 m/S 726 mmHg 33%
    15:00 +35°C° 0 mm 4 m/S 725 mmHg 34%
    16:00 +34°C° 0 mm 4 m/S 726 mmHg 38%
    17:00 +33°C° 0 mm 5 m/S 726 mmHg 42%
    18:00 +32°C° 0 mm 5 m/S 726 mmHg 46%
    19:00 +30°C° 0,1 mm 5 m/S 727 mmHg 52%
    20:00 +29°C° 0,1 mm 5 m/S 727 mmHg 58%
    21:00 +28°C° 0,1 mm 5 m/S 728 mmHg 64%
    22:00 +27°C° 0 mm 5 m/S 728 mmHg 66%
    23:00 +26°C° 0 mm 4 m/S 728 mmHg 69%

    Morgen, 25 November, Samstag

    Zeit Temperatur Niederschläge Wind Luftdruck Luftfeuchtigkeit
    00:00 +26°C° 0 mm 4 m/S 728 mmHg 71%
    01:00 +25°C° 0 mm 3 m/S 727 mmHg 73%
    02:00 +25°C° 0 mm 3 m/S 727 mmHg 75%
    03:00 +24°C° 0 mm 2 m/S 727 mmHg 77%
    04:00 +24°C° 0 mm 3 m/S 727 mmHg 77%
    05:00 +24°C° 0 mm 3 m/S 727 mmHg 78%
    06:00 +24°C° 0 mm 3 m/S 727 mmHg 78%
    07:00 +26°C° 0 mm 3 m/S 728 mmHg 69%
    08:00 +28°C° 0 mm 4 m/S 728 mmHg 60%
    09:00 +30°C° 0 mm 4 m/S 729 mmHg 50%
    10:00 +33°C° 0 mm 4 m/S 728 mmHg 44%
    11:00 +35°C° 0 mm 4 m/S 728 mmHg 38%
    12:00 +36°C° 0 mm 5 m/S 727 mmHg 32%
    13:00 +36°C° 0 mm 5 m/S 727 mmHg 34%
    14:00 +36°C° 0 mm 6 m/S 726 mmHg 36%
    15:00 +35°C° 0 mm 6 m/S 725 mmHg 37%
    16:00 +34°C° 0 mm 6 m/S 725 mmHg 43%
    17:00 +32°C° 0 mm 6 m/S 725 mmHg 49%
    18:00 +29°C° 0 mm 6 m/S 726 mmHg 54%
    19:00 +28°C° 0 mm 6 m/S 726 mmHg 58%
    20:00 +27°C° 0 mm 5 m/S 727 mmHg 62%
    21:00 +26°C° 0 mm 5 m/S 727 mmHg 66%
    22:00 +26°C° 0 mm 5 m/S 727 mmHg 69%
    23:00 +25°C° 0 mm 4 m/S 727 mmHg 71%

    übermorgen, 26 November, Sonntag

    Zeit Temperatur Niederschläge Wind Luftdruck Luftfeuchtigkeit
    00:00 +25°C° 0 mm 4 m/S 727 mmHg 74%
    01:00 +24°C° 0 mm 3 m/S 727 mmHg 75%
    02:00 +24°C° 0 mm 3 m/S 726 mmHg 77%
    03:00 +22°C° 0 mm 3 m/S 726 mmHg 78%
    04:00 +24°C° 0 mm 3 m/S 727 mmHg 78%
    05:00 +24°C° 0 mm 3 m/S 727 mmHg 78%
    06:00 +24°C° 0 mm 3 m/S 728 mmHg 77%
    07:00 +26°C° 0 mm 4 m/S 728 mmHg 66%
    08:00 +28°C° 0 mm 4 m/S 728 mmHg 56%
    09:00 +30°C° 0 mm 4 m/S 729 mmHg 45%
    10:00 +33°C° 0 mm 4 m/S 728 mmHg 40%
    11:00 +34°C° 0 mm 4 m/S 727 mmHg 36%
    12:00 +36°C° 0 mm 4 m/S 727 mmHg 31%
    13:00 +36°C° 0 mm 4 m/S 726 mmHg 31%
    14:00 +36°C° 0 mm 4 m/S 725 mmHg 31%
    15:00 +36°C° 0 mm 5 m/S 725 mmHg 31%
    16:00 +34°C° 0 mm 5 m/S 725 mmHg 36%
    17:00 +33°C° 0 mm 5 m/S 725 mmHg 42%
    18:00 +30°C° 0 mm 6 m/S 725 mmHg 48%
    19:00 +29°C° 0 mm 6 m/S 726 mmHg 54%
    20:00 +28°C° 0 mm 6 m/S 726 mmHg 61%
    21:00 +26°C° 0 mm 6 m/S 727 mmHg 67%
    22:00 +26°C° 0 mm 5 m/S 727 mmHg 69%
    23:00 +25°C° 0 mm 5 m/S 727 mmHg 71%

    27 November, Montag

    Zeit Temperatur Niederschläge Wind Luftdruck Luftfeuchtigkeit
    00:00 +25°C° 0 mm 4 m/S 727 mmHg 72%
    01:00 +23°C° 0 mm 4 m/S 726 mmHg 74%
    02:00 +24°C° 0 mm 3 m/S 726 mmHg 76%
    03:00 +24°C° 0 mm 3 m/S 726 mmHg 77%
    04:00 +24°C° 0 mm 3 m/S 726 mmHg 77%
    05:00 +24°C° 0 mm 3 m/S 727 mmHg 76%
    06:00 +24°C° 0 mm 3 m/S 727 mmHg 76%
    07:00 +26°C° 0 mm 3 m/S 728 mmHg 66%
    08:00 +28°C° 0 mm 3 m/S 728 mmHg 56%
    09:00 +31°C° 0 mm 3 m/S 728 mmHg 46%
    10:00 +33°C° 0 mm 3 m/S 728 mmHg 41%
    11:00 +35°C° 0 mm 3 m/S 727 mmHg 35%
    12:00 +37°C° 0 mm 3 m/S 727 mmHg 30%
    13:00 +36°C° 0 mm 4 m/S 726 mmHg 31%
    14:00 +36°C° 0 mm 4 m/S 726 mmHg 32%
    15:00 +35°C° 0 mm 5 m/S 725 mmHg 33%
    16:00 +34°C° 0 mm 5 m/S 725 mmHg 38%
    17:00 +33°C° 0 mm 5 m/S 725 mmHg 43%
    18:00 +32°C° 0 mm 5 m/S 726 mmHg 48%
    19:00 +30°C° 0 mm 5 m/S 726 mmHg 54%
    20:00 +28°C° 0 mm 5 m/S 726 mmHg 59%
    21:00 +27°C° 0 mm 5 m/S 727 mmHg 64%
    22:00 +27°C° 0 mm 5 m/S 727 mmHg 67%
    23:00 +26°C° 0 mm 4 m/S 726 mmHg 69%

    28 November, Dienstag

    Zeit Temperatur Niederschläge Wind Luftdruck Luftfeuchtigkeit
    00:00 +25°C° 0 mm 4 m/S 726 mmHg 71%
    01:00 +25°C° 0 mm 3 m/S 726 mmHg 73%
    02:00 +24°C° 0 mm 3 m/S 726 mmHg 74%
    03:00 +24°C° 0 mm 2 m/S 726 mmHg 76%
    04:00 +24°C° 0 mm 2 m/S 726 mmHg 75%
    05:00 +24°C° 0 mm 2 m/S 727 mmHg 75%
    06:00 +24°C° 0 mm 2 m/S 727 mmHg 74%
    07:00 +26°C° 0 mm 3 m/S 727 mmHg 64%
    08:00 +29°C° 0 mm 3 m/S 728 mmHg 54%
    09:00 +31°C° 0 mm 3 m/S 728 mmHg 43%
    10:00 +34°C° 0 mm 3 m/S 727 mmHg 39%
    11:00 +35°C° 0 mm 3 m/S 727 mmHg 34%
    12:00 +37°C° 0 mm 3 m/S 726 mmHg 30%
    13:00 +37°C° 0 mm 3 m/S 725 mmHg 31%
    14:00 +37°C° 0 mm 4 m/S 725 mmHg 31%
    15:00 +36°C° 0 mm 4 m/S 724 mmHg 32%
    16:00 +35°C° 0 mm 4 m/S 724 mmHg 36%
    17:00 +34°C° 0 mm 4 m/S 725 mmHg 41%
    18:00 +33°C° 0 mm 5 m/S 725 mmHg 45%
    19:00 +32°C° 0 mm 5 m/S 725 mmHg 50%
    20:00 +29°C° 0 mm 5 m/S 726 mmHg 55%
    21:00 +28°C° 0 mm 5 m/S 726 mmHg 60%
    22:00 +27°C° 0,1 mm 4 m/S 726 mmHg 63%
    23:00 +27°C° 0,1 mm 4 m/S 726 mmHg 65%

    29 November, Mittwoch

    Zeit Temperatur Niederschläge Wind Luftdruck Luftfeuchtigkeit
    00:00 +26°C° 0,1 mm 3 m/S 726 mmHg 67%
    01:00 +26°C° 0 mm 3 m/S 726 mmHg 68%
    02:00 +25°C° 0 mm 2 m/S 725 mmHg 69%
    03:00 +25°C° 0 mm 2 m/S 725 mmHg 70%
    04:00 +25°C° 0 mm 2 m/S 725 mmHg 68%
    05:00 +25°C° 0 mm 2 m/S 726 mmHg 67%
    06:00 +25°C° 0 mm 2 m/S 726 mmHg 65%
    07:00 +28°C° 0 mm 2 m/S 726 mmHg 55%
    08:00 +30°C° 0 mm 2 m/S 726 mmHg 45%
    09:00 +34°C° 0 mm 2 m/S 726 mmHg 36%
    10:00 +36°C° 0 mm 2 m/S 726 mmHg 32%
    11:00 +38°C° 0 mm 2 m/S 725 mmHg 28%
    12:00 +40°C° 0 mm 1 m/S 725 mmHg 24%
    13:00 +40°C° 0 mm 1 m/S 724 mmHg 24%
    14:00 +39°C° 0 mm 1 m/S 723 mmHg 25%
    15:00 +37°C° 0 mm 1 m/S 722 mmHg 25%
    16:00 +36°C° 0 mm 1 m/S 723 mmHg 27%
    17:00 +36°C° 0 mm 2 m/S 723 mmHg 28%
    18:00 +36°C° 0 mm 2 m/S 723 mmHg 30%
    19:00 +35°C° 0 mm 3 m/S 723 mmHg 33%
    20:00 +34°C° 0 mm 3 m/S 724 mmHg 37%
    21:00 +33°C° 0 mm 4 m/S 724 mmHg 41%
    22:00 +32°C° 0 mm 4 m/S 724 mmHg 46%
    23:00 +30°C° 0 mm 4 m/S 724 mmHg 50%
    Mehr zeigen